EST,Max TemperatureF,Mean TemperatureF,Min TemperatureF,Max Dew PointF,MeanDew PointF,Min DewpointF,Max Humidity, Mean Humidity, Min Humidity, Max Sea Level PressureIn, Mean Sea Level PressureIn, Min Sea Level PressureIn, Max VisibilityMiles, Mean VisibilityMiles, Min VisibilityMiles, Max Wind SpeedMPH, Mean Wind SpeedMPH, Max Gust SpeedMPH,PrecipitationIn, CloudCover, Events, WindDirDegrees
2013-1-1,71,56,42,59,51,43,100,80,50,30.20,30.07,29.96,10,10,7,13,3,22,0.00,4,,209
2013-1-2,66,58,51,64,52,41,100,82,42,30.15,30.04,29.93,10,9,3,12,5,18,0.00,6,Rain,311
2013-1-3,51,43,35,46,42,36,100,91,66,30.31,30.21,30.13,10,10,7,8,3,,0.00,5,Rain,311
2013-1-4,51,42,32,45,37,27,100,86,54,30.41,30.35,30.31,10,8,0,7,2,,0.00,2,Fog,325
2013-1-5,53,42,30,46,30,21,100,63,28,30.43,30.36,30.31,10,10,10,7,2,,0.00,2,Rain,19
2013-1-6,55,50,42,41,38,36,81,67,47,30.29,30.23,30.16,10,10,10,8,2,,0.00,6,,312
2013-1-7,59,46,32,37,33,28,100,73,31,30.40,30.34,30.26,10,10,7,14,4,18,0.00,1,,69
2013-1-8,62,52,42,46,40,34,76,64,52,30.41,30.35,30.30,10,10,10,8,5,,0.00,8,,59
2013-1-9,68,59,50,63,52,45,100,81,60,30.44,30.38,30.33,10,10,5,7,4,,0.00,5,,50
2013-1-10,71,61,51,68,61,52,100,99,83,30.43,30.37,30.30,10,6,0,10,3,16,0.00,7,Fog-Rain,90
2013-1-11,77,68,59,68,63,59,100,90,57,30.30,30.22,30.17,10,8,0,12,6,20,0.00,6,Fog,181
2013-1-12,78,64,51,64,56,52,100,82,42,30.22,30.16,30.12,10,7,0,10,2,,0.00,3,Fog,201
2013-1-13,78,64,51,66,60,52,100,86,51,30.17,30.12,30.09,10,9,0,13,4,16,0.00,2,Fog,198
2013-1-14,78,68,59,68,62,57,100,84,47,30.19,30.14,30.10,10,10,7,17,5,22,0.00,2,,205
2013-1-15,78,66,53,63,57,54,100,75,44,30.16,30.09,30.04,10,8,0,14,4,22,0.00,4,Fog-Rain,202
2013-1-16,80,71,62,70,61,55,100,77,47,30.06,30.00,29.95,10,10,4,16,8,23,0.00,7,Rain,221
2013-1-17,68,54,41,68,53,32,100,90,58,30.18,29.95,29.87,10,8,2,20,7,33,0.00,8,Rain,231
2013-1-18,55,44,32,41,33,19,100,75,25,30.51,30.43,30.23,10,10,10,12,6,18,0.00,0,,33
2013-1-19,62,47,32,45,35,27,100,72,36,30.49,30.37,30.26,10,10,10,6,2,,0.00,0,,63
2013-1-20,66,50,35,45,34,21,100,70,18,30.26,30.19,30.11,10,10,7,9,2,,0.00,0,,301
2013-1-21,64,48,32,43,34,28,100,65,28,30.17,30.12,30.06,10,10,10,13,2,18,0.00,0,,313
2013-1-22,53,43,33,28,20,14,75,44,21,30.35,30.27,30.17,10,10,10,14,5,23,0.00,0,,316
2013-1-23,57,42,28,37,27,16,100,59,26,30.44,30.33,30.24,10,10,5,13,3,18,0.00,1,,285
2013-1-24,68,56,44,45,34,12,76,48,21,30.38,30.25,30.18,10,10,10,17,8,28,0.00,2,,303
2013-1-25,50,42,35,39,26,12,93,53,38,30.43,30.31,30.17,10,10,10,14,6,18,0.00,4,,91
2013-1-26,62,48,33,46,37,28,100,74,29,30.31,30.22,30.15,10,10,5,7,2,,0.00,2,,326
2013-1-27,60,46,32,41,33,28,100,67,29,30.49,30.41,30.30,10,10,7,14,4,17,0.00,2,,79
2013-1-28,68,57,46,54,43,32,100,73,52,30.46,30.38,30.29,10,8,2,8,4,,0.00,6,,89
2013-1-29,78,61,44,64,55,45,100,80,44,30.29,30.18,30.07,10,6,0,12,2,18,0.00,6,Fog,173
2013-1-30,78,66,53,68,62,46,100,84,54,30.06,29.85,29.61,10,10,2,29,13,44,0.00,7,Rain-Thunderstorm,202
2013-1-31,55,44,32,46,26,14,100,50,21,30.24,30.10,29.84,10,10,10,22,13,36,0.00,1,,294